Torna al catalogo

GLOBALSTAR M067

AttivoComunicazioniLEO
NORAD 32263·PAYLOAD·🇺🇸 United States

Lanciato Oct 20, 2007 da Baikonur Cosmodrome

Loading…

Prossimi Passaggi (prossime 24 ore)

TLE

AggiornatoSource: Space-Track

Epoca: Sep 14, 2026, 09:46 UTC

1 32263U 07048A   26257.40714587 -.00000104  00000-0 -50274-4 0  9992
2 32263  51.9720 146.8170 0000461 198.2025 333.9394 12.40692435865860

Traccia GLOBALSTAR M067 in tempo reale con AllMySat

Download on the App Store